| time (UTC) | temp F | wind direction | speed MPH | gust MPH | rain 1hr in | rain 24hr in | rain mn in | humidity % | barometer mb |
| 20260508030045 | 67 | 51 | 1.0 | 3.0 | 0.00 | 0.03 | 0.03 | 91 | 1015.3 |
| 20260508024544 | 67 | 101 | 1.0 | 4.0 | 0.00 | 0.03 | 0.03 | 91 | 1014.9 |
| 20260508023037 | 67 | 221 | 1.0 | 3.0 | 0.00 | 0.03 | 0.03 | 91 | 1015.2 |
| 20260508021537 | 67 | 9 | 1.0 | 5.0 | 0.00 | 0.03 | 0.03 | 90 | 1015.0 |
| 20260508020053 | 68 | 309 | 1.0 | 3.0 | 0.00 | 0.03 | 0.03 | 89 | 1014.4 |
| 20260508014544 | 68 | 301 | 1.0 | 4.0 | 0.00 | 0.03 | 0.03 | 89 | 1014.0 |
| 20260508013044 | 69 | 291 | 1.0 | 3.0 | 0.00 | 0.03 | 0.03 | 88 | 1014.2 |
| 20260508011541 | 69 | 111 | 1.0 | 5.0 | 0.00 | 0.03 | 0.03 | 88 | 1014.5 |
| 20260508010050 | 70 | 34 | 1.0 | 4.0 | 0.00 | 0.03 | 0.03 | 87 | 1014.2 |
| 20260508004545 | 71 | 319 | 1.0 | 3.0 | 0.00 | 0.03 | 0.03 | 86 | 1014.0 |
| 20260508003043 | 72 | 51 | 0.0 | 3.0 | 0.00 | 0.03 | 0.03 | 86 | 1014.2 |
| 20260508001543 | 73 | 137 | 1.0 | 4.0 | 0.00 | 0.03 | 0.03 | 85 | 1014.0 |
| 20260508000044 | 73 | 9 | 1.0 | 4.0 | 0.00 | 0.03 | 0.03 | 84 | 1014.0 |
| 20260507234544 | 74 | 0 | 1.0 | 5.0 | 0.00 | 0.03 | 0.03 | 84 | 1013.7 |
| 20260507233045 | 75 | 319 | 1.0 | 5.0 | 0.00 | 0.03 | 0.03 | 83 | 1013.8 |
| 20260507231547 | 75 | 41 | 1.0 | 7.0 | 0.00 | 0.03 | 0.03 | 83 | 1014.0 |
| 20260507230047 | 76 | 76 | 1.0 | 8.0 | 0.00 | 0.03 | 0.03 | 82 | 1014.0 |
| 20260507224546 | 76 | 334 | 2.0 | 9.0 | 0.00 | 0.03 | 0.03 | 81 | 1014.0 |
| 20260507223044 | 76 | 42 | 2.0 | 6.0 | 0.00 | 0.03 | 0.03 | 80 | 1013.9 |
| 20260507221538 | 78 | 306 | 4.0 | 11.0 | 0.00 | 0.03 | 0.03 | 78 | 1014.0 |
| 20260507220045 | 78 | 338 | 3.0 | 8.0 | 0.00 | 0.03 | 0.03 | 79 | 1013.7 |
| 20260507214548 | 78 | 9 | 3.0 | 9.0 | 0.00 | 0.03 | 0.03 | 79 | 1013.8 |
| 20260507213047 | 77 | 0 | 2.0 | 10.0 | 0.00 | 0.03 | 0.03 | 79 | 1013.9 |
| 20260507211546 | 77 | 344 | 4.0 | 10.0 | 0.00 | 0.03 | 0.03 | 80 | 1013.8 |
| 20260507210043 | 76 | 26 | 3.0 | 9.0 | 0.00 | 0.03 | 0.03 | 80 | 1014.0 |
| 20260507204541 | 76 | 309 | 2.0 | 8.0 | 0.00 | 0.03 | 0.03 | 81 | 1014.2 |
| 20260507203047 | 75 | 15 | 2.0 | 9.0 | 0.00 | 0.03 | 0.03 | 81 | 1014.6 |
| 20260507201545 | 75 | 21 | 3.0 | 11.0 | 0.00 | 0.03 | 0.03 | 82 | 1014.9 |
| 20260507200049 | 74 | 61 | 2.0 | 8.0 | 0.00 | 0.03 | 0.03 | 83 | 1014.9 |
| 20260507194547 | 73 | 126 | 1.0 | 9.0 | 0.00 | 0.03 | 0.03 | 85 | 1014.9 |
| 20260507193042 | 72 | 44 | 2.0 | 13.0 | 0.00 | 0.03 | 0.03 | 84 | 1014.9 |
| 20260507191541 | 71 | 323 | 5.0 | 13.0 | 0.00 | 0.03 | 0.03 | 83 | 1015.2 |
| 20260507190038 | 71 | 347 | 4.0 | 11.0 | 0.00 | 0.03 | 0.03 | 85 | 1015.4 |
| 20260507184544 | 69 | 294 | 4.0 | 9.0 | 0.00 | 0.03 | 0.03 | 86 | 1015.5 |
| 20260507183047 | 68 | 123 | 3.0 | 15.0 | 0.00 | 0.03 | 0.03 | 87 | 1015.7 |
| 20260507181544 | 68 | 311 | 5.0 | 12.0 | 0.00 | 0.03 | 0.03 | 87 | 1016.0 |
| 20260507180053 | 68 | 24 | 4.0 | 12.0 | 0.00 | 0.03 | 0.03 | 86 | 1015.9 |
| 20260507174541 | 68 | 45 | 4.0 | 13.0 | 0.00 | 0.03 | 0.03 | 88 | 1015.7 |
| 20260507173048 | 67 | 13 | 5.0 | 12.0 | 0.00 | 0.03 | 0.03 | 87 | 1016.1 |
| 20260507171559 | 68 | 291 | 4.0 | 10.0 | 0.00 | 0.03 | 0.03 | 87 | 1016.4 |
| 20260507170043 | 67 | 309 | 4.0 | 13.0 | 0.00 | 0.03 | 0.03 | 88 | 1016.2 |
| 20260507164549 | 68 | 342 | 4.0 | 11.0 | 0.00 | 0.03 | 0.03 | 87 | 1016.0 |
| 20260507163047 | 68 | 317 | 2.0 | 12.0 | 0.00 | 0.03 | 0.03 | 89 | 1015.8 |
| 20260507161546 | 67 | 59 | 4.0 | 11.0 | 0.00 | 0.03 | 0.03 | 89 | 1016.1 |
| 20260507160051 | 66 | 83 | 4.0 | 11.0 | 0.00 | 0.03 | 0.03 | 90 | 1015.9 |
| 20260507154545 | 64 | 146 | 3.0 | 10.0 | 0.00 | 0.03 | 0.03 | 92 | 1016.4 |
| 20260507153045 | 63 | 287 | 3.0 | 10.0 | 0.00 | 0.03 | 0.03 | 93 | 1016.6 |
| 20260507151545 | 62 | 321 | 1.0 | 8.0 | 0.00 | 0.03 | 0.03 | 94 | 1016.4 |
| 20260507150041 | 62 | 105 | 1.0 | 5.0 | 0.00 | 0.03 | 0.03 | 94 | 1016.5 |
| 20260507144537 | 61 | 338 | 2.0 | 8.0 | 0.00 | 0.03 | 0.03 | 94 | 1017.0 |
| 20260507143049 | 61 | 28 | 2.0 | 9.0 | 0.00 | 0.03 | 0.03 | 95 | 1016.7 |
| 20260507141546 | 61 | 309 | 2.0 | 8.0 | 0.00 | 0.03 | 0.03 | 95 | 1016.4 |
| 20260507140055 | 60 | 103 | 3.0 | 8.0 | 0.00 | 0.03 | 0.03 | 95 | 1016.2 |
| 20260507134544 | 60 | 93 | 2.0 | 10.0 | 0.00 | 0.03 | 0.03 | 96 | 1016.0 |
| 20260507133040 | 60 | 34 | 3.0 | 10.0 | 0.00 | 0.03 | 0.03 | 96 | 1015.8 |
| 20260507131547 | 60 | 36 | 2.0 | 6.0 | 0.00 | 0.03 | 0.03 | 97 | 1016.2 |
| 20260507124559 | 59 | 335 | 2.0 | 7.0 | 0.00 | 0.03 | 0.03 | 98 | 1015.8 |
| 20260507123042 | 59 | 310 | 2.0 | 7.0 | 0.00 | 0.03 | 0.03 | 98 | 1015.6 |
| 20260507121544 | 59 | 51 | 1.0 | 7.0 | 0.00 | 0.03 | 0.03 | 98 | 1015.0 |
| 20260507120041 | 59 | 9 | 2.0 | 9.0 | 0.00 | 0.03 | 0.03 | 98 | 1015.0 |
| 20260507114549 | 59 | 51 | 2.0 | 9.0 | 0.00 | 0.03 | 0.03 | 98 | 1014.7 |
| 20260507113044 | 59 | 328 | 2.0 | 12.0 | 0.00 | 0.03 | 0.03 | 98 | 1014.3 |
| 20260507111544 | 59 | 51 | 3.0 | 8.0 | 0.00 | 0.03 | 0.03 | 98 | 1014.3 |
| 20260507110048 | 60 | 15 | 3.0 | 13.0 | 0.00 | 0.03 | 0.03 | 98 | 1014.3 |
| 20260507104551 | 60 | 336 | 2.0 | 13.0 | 0.00 | 0.03 | 0.03 | 98 | 1014.7 |
| 20260507103041 | 61 | 56 | 3.0 | 9.0 | 0.00 | 0.03 | 0.03 | 98 | 1014.5 |
| 20260507101538 | 61 | 324 | 3.0 | 7.0 | 0.00 | 0.03 | 0.03 | 98 | 1013.8 |
| 20260507100049 | 61 | 339 | 3.0 | 9.0 | 0.00 | 0.03 | 0.03 | 98 | 1013.8 |
| 20260507094545 | 61 | 341 | 3.0 | 10.0 | 0.00 | 0.03 | 0.03 | 98 | 1013.5 |
| 20260507093044 | 62 | 330 | 4.0 | 11.0 | 0.00 | 0.03 | 0.03 | 98 | 1013.3 |
| 20260507091544 | 62 | 332 | 4.0 | 13.0 | 0.00 | 0.03 | 0.03 | 98 | 1013.5 |
| 20260507090041 | 63 | 311 | 3.0 | 12.0 | 0.00 | 0.03 | 0.03 | 98 | 1013.4 |
| 20260507084539 | 63 | 344 | 2.0 | 10.0 | 0.00 | 0.03 | 0.03 | 98 | 1013.4 |
| 20260507083037 | 63 | 57 | 2.0 | 12.0 | 0.00 | 0.03 | 0.03 | 97 | 1013.1 |
| 20260507081544 | 64 | 346 | 3.0 | 9.0 | 0.00 | 0.03 | 0.03 | 97 | 1013.1 |
| 20260507080042 | 64 | 46 | 4.0 | 10.0 | 0.00 | 0.03 | 0.03 | 97 | 1012.8 |
| 20260507074546 | 65 | 340 | 3.0 | 10.0 | 0.00 | 0.03 | 0.03 | 97 | 1013.0 |
| 20260507073046 | 65 | 309 | 2.0 | 9.0 | 0.00 | 0.03 | 0.03 | 97 | 1012.9 |
| 20260507071543 | 66 | 61 | 2.0 | 10.0 | 0.03 | 0.03 | 0.03 | 97 | 1012.8 |
| 20260507070048 | 67 | 51 | 2.0 | 12.0 | 0.03 | 0.03 | 0.03 | 96 | 1013.0 |
| 20260507064539 | 69 | 126 | 2.0 | 9.0 | 0.03 | 0.03 | 0.03 | 96 | 1012.9 |
| 20260507063052 | 70 | 346 | 2.0 | 9.0 | 0.03 | 0.03 | 0.03 | 96 | 1012.8 |
| 20260507061549 | 70 | 9 | 2.0 | 10.0 | 0.00 | 0.00 | 0.00 | 96 | 1012.7 |
| 20260507060048 | 71 | 34 | 3.0 | 9.0 | 0.00 | 0.00 | 0.00 | 96 | 1012.6 |
| 20260507054545 | 73 | 104 | 4.0 | 11.0 | 0.00 | 0.00 | 0.00 | 95 | 1012.5 |
| 20260507053043 | 76 | 325 | 0.0 | 2.0 | 0.00 | 0.00 | 0.00 | 98 | 1012.2 |
| 20260507051539 | 76 | 309 | 0.0 | 2.0 | 0.00 | 0.00 | 0.00 | 97 | 1012.2 |
| 20260507050039 | 76 | 0 | 0.0 | 3.0 | 0.00 | 0.00 | 0.00 | 97 | 1012.0 |
| 20260507044559 | 76 | 153 | 1.0 | 3.0 | 0.00 | 0.00 | 0.00 | 97 | 1012.0 |
| 20260507043042 | 76 | 0 | 0.0 | 1.0 | 0.00 | 0.00 | 0.00 | 97 | 1011.9 |
| 20260507041541 | 76 | 126 | 0.0 | 2.0 | 0.00 | 0.00 | 0.00 | 97 | 1011.8 |
| 20260507040037 | 76 | 0 | 0.0 | 2.0 | 0.00 | 0.00 | 0.00 | 97 | 1011.6 |
| 20260507034544 | 77 | 0 | 0.0 | 2.0 | 0.00 | 0.00 | 0.00 | 96 | 1011.6 |
| 20260507033046 | 77 | 205 | 1.0 | 5.0 | 0.00 | 0.00 | 0.00 | 97 | 1011.4 |
| 20260507031544 | 77 | 178 | 1.0 | 4.0 | 0.00 | 0.00 | 0.00 | 97 | 1011.4 |